Location: Waldport
(44.4270°N, 124.0680°W)
Time: 18:55:56
(UTC-07:00)

Meteor 1-26 Rocket - Visible Passes

Search period start: 28 May 2016 00:00
Search period end: 07 June 2016 00:00
Orbit: 832 x 904 km, 81.3° (Epoch: 28 May)

Date Brightness Start Highest point End Pass type
(mag) Time Alt. Az. Time Alt. Az. Time Alt. Az.
28 May 7.1 02:26:05 10° NE 02:27:00 10° ENE 02:27:54 10° ENE visible
28 May 4.5 04:05:50 10° N 04:11:24 71° ENE 04:16:53 10° SSE visible
29 May 7.1 02:18:59 10° NE 02:20:05 11° ENE 02:21:11 10° ENE visible
29 May 4.4 03:58:54 10° N 04:04:28 72° ENE 04:09:58 10° SSE visible
30 May 7.0 02:11:54 10° NE 02:13:10 11° ENE 02:14:26 10° ENE visible
30 May 4.4 03:51:58 10° N 03:57:32 73° ENE 04:03:02 10° SSE visible
31 May 7.0 02:04:51 10° NE 02:06:16 11° ENE 02:07:40 10° ENE visible
31 May 4.4 03:45:03 10° N 03:50:37 74° ENE 03:56:07 10° SSE visible
01 Jun 6.9 01:57:48 10° NE 01:59:21 11° ENE 02:00:54 10° ENE visible
01 Jun 4.3 03:38:07 10° N 03:43:41 76° E 03:49:12 10° SSE visible
02 Jun 6.9 01:50:46 10° NE 01:52:26 11° ENE 01:54:07 10° ENE visible
02 Jun 4.3 03:31:11 10° N 03:36:45 77° E 03:42:16 10° SSE visible
03 Jun 6.8 01:43:45 10° NE 01:45:33 11° ENE 01:47:19 10° ENE visible
03 Jun 4.3 03:24:16 10° N 03:29:49 78° E 03:35:05 11° SSE visible
04 Jun 6.8 01:36:44 10° NE 01:38:37 12° ENE 01:40:31 10° E visible
04 Jun 4.2 03:17:20 10° N 03:22:54 79° E 03:27:40 14° SSE visible
05 Jun 6.8 01:29:42 10° NE 01:31:43 12° ENE 01:33:43 10° E visible
05 Jun 4.2 03:10:24 10° N 03:15:58 80° E 03:20:18 17° SSE visible
05 Jun 6.0 04:55:50 10° NW 04:58:27 14° W 05:01:05 10° WSW visible
06 Jun 6.7 01:22:42 10° NE 01:24:48 12° ENE 01:26:54 10° E visible
06 Jun 4.2 03:03:29 10° N 03:09:02 82° ENE 03:13:00 20° SSE visible
06 Jun 6.0 04:48:58 10° NW 04:51:30 13° W 04:54:04 10° WSW visible
